Regional Weather Roundup
Issued by NWS

Home | Current Version | Previous Version | Graphics & Text | Print | Product List | Glossary On
Versions: 1 2 3 4 5 6 7 8 9 10 11 12 13 14 15 16 17 18 19 20 21 22 23 24 25 26 27 28 29 30 31 32 33 34 35 36 37 38 39 40 41 42 43 44 45 46 47 48 49 50
000
ASUS43 KMKX 201121
RWRWI

WISCONSIN REGIONAL WEATHER ROUNDUP
NATIONAL WEATHER SERVICE MILWAUKEE/SULLIVAN WI
600 AM CDT WED AUG 20 2014

NOTE: "FAIR" INDICATES FEW OR NO CLOUDS BELOW 12,000 FEET WITH NO
SIGNIFICANT WEATHER AND/OR OBSTRUCTIONS TO VISIBILITY.

WIZ001-002-006>008-014>016-023>028-201200-
NORTHWEST WISCONSIN

CITY           SKY/WX    TMP DP  RH WIND       PRES   REMARKS
SUPERIOR ARPT  CLOUDY    61  60  96 CALM      29.85R
ASHLAND        CLOUDY    59  58  96 CALM      29.86R
HAYWARD        CLOUDY    60  59  96 CALM      29.87R
SIREN          FOG       59  59  98 CALM      29.87R VSB 1/2
RICE LAKE      CLOUDY    60  59  96 CALM      29.88R
LADYSMITH      CLOUDY    60  58  94 N3        29.89R
EAU CLAIRE     FOG       59  59 100 CALM      29.84R VSB 3/4
MENOMONIE      CLOUDY    63  62  98 CALM      29.84F
NEW RICHMOND   FOG       58  58 100 CALM      29.84S VSB 3/4
OSCEOLA        FOG       58  58 100 CALM      29.86F VSB 3/4
$$

WIZ003>005-009-010-017-018-201200-
NORTH CENTRAL WISCONSIN

CITY           SKY/WX    TMP DP  RH WIND       PRES   REMARKS
WOODRUFF       CLOUDY    59  57  92 N6        29.85R FOG
RHINELANDER    CLOUDY    59  57  93 CALM      29.85R
EAGLE RIVER    CLOUDY    56  56 100 N5        29.84R
LAND O LAKES   CLOUDY    56  56  99 NW3       29.86R FOG
PHILLIPS       CLOUDY    58  57  96 CALM      29.86S
TOMAHAWK       CLOUDY    58  56  96 NW3       29.86R FOG
MEDFORD        CLOUDY    58  58  99 NW3       29.87R
MERRILL        CLOUDY    59  59  99 CALM      29.85S
$$

WIZ029-030-035-036-043>047-201200-
CENTRAL WISCONSIN

CITY           SKY/WX    TMP DP  RH WIND       PRES   REMARKS
WAUSAU         CLOUDY    60  58  92 NW7       29.83S
MOSINEE        FOG       59  59 100 N7        29.86R VSB 3/4
MARSHFIELD     PTCLDY    59  58  96 N6        29.84R
STEVENS POINT  CLOUDY    59  58  99 CALM      29.84R
WAUPACA        PTCLDY    64  63  95 CALM      29.83R
WAUTOMA        FOG       59  59 100 CALM      29.83S VSB 1/4
WISC RAPIDS    MOCLDY    60  59  96 N3        29.85S
CAMP DOUGLAS   FOG       55  55 100 NW2       29.82F VSB 1/4
$$

WIZ011>013-019>022-031-037>040-048>050-201200-
NORTHEAST WISCONSIN

CITY           SKY/WX    TMP DP  RH WIND       PRES   REMARKS
ANTIGO         CLOUDY    59  58  98 W7        29.85R
STURGEON BAY   CLOUDY    63  59  88 NW8       29.81S
GREEN BAY      MOCLDY    60  60 100 W5        29.81R
MANITOWOC      CLOUDY    62  61  96 W5        29.81S
APPLETON       PTCLDY    61  59  94 W7        29.82R
CLINTONVILLE   CLOUDY    63  59  88 NW6       29.82R
OSHKOSH        CLEAR     62  61  96 W6        29.82R
$$

WIZ032>034-041-042-053>061-201200-
SOUTHWEST WISCONSIN

CITY           SKY/WX    TMP DP  RH WIND       PRES   REMARKS
LA CROSSE      CLEAR     64  61  90 E3        29.81S
SPARTA         FOG       57  57  97 CALM      29.84R VSB 1
VIROQUA        FAIR      59  59 100 CALM      29.83S
BOSCOBEL       FOG       63  61  93 CALM      29.82S VSB 3/4
PRAIRIE DU CHI PTCLDY    62  60  94 CALM      29.82R
PLATTEVILLE    FAIR      64  61  92 CALM      29.84R
$$

WIZ056-057-062-063-064-067-068-201200-
SOUTH CENTRAL WISCONSIN

CITY           SKY/WX    TMP DP  RH WIND       PRES   REMARKS
BARABOO/DELLS  CLEAR     60  58  94 CALM      29.82S FOG
LONE ROCK      FOG       63  60  90 CALM      29.82S VSB 1/2
WATERTOWN      CLEAR     60  60 100 CALM      29.82S FOG
MADISON        PTCLDY    62  60  93 CALM      29.82S
MIDDLETON      FAIR      62  62 100 CALM      29.83S
MONROE         MOCLDY    64  63  94 W5        29.83R
JANESVILLE     PTCLDY    63  61  94 CALM      29.82S
$$

WIZ051-052-058>065-066-070>072-201200-
SOUTHEAST WISCONSIN

CITY           SKY/WX    TMP DP  RH WIND       PRES   REMARKS
MILWAUKEE      PTCLDY    66  61  84 NW6       29.81S
WAUKESHA       CLEAR     61  59  94 NW5       29.83S
MILWAUKEE/TIMM CLEAR     63  59  88 CALM      29.83S
RACINE         CLEAR     65  62  90 W3        29.83S
BURLINGTON     FOG       59  58  99 CALM      29.83R VSB 3/4
KENOSHA        CLEAR     61  60  97 W5        29.82S
FOND DU LAC    MOCLDY    62  60  93 CALM      29.82R
SHEBOYGAN      PTCLDY    62  60  93 W3        29.82R
WEST BEND      CLEAR     61  55  82 E3        29.82S
JUNEAU         PTCLDY    63  37  38 CALM      29.84S
$$

LSZ147-162-201200-
LAKE SUPERIOR

STATION/POSITION TIME  TEMP    WIND        PRES    WAVE
                       AIR SEA DIR/SP/G            HT/PER
                 (UTC) (F)     (DEG/KT/KT) (MB)    (FT/S)
W MID LAKE BUOY  1050   58 58  270/  6/  6 1010.1R   1
DEVILS ISLAND    1100   60     250/  7/  8 1010.5S
PORT WING        1040   60     150/  1/  2 1010.8S
SAXON HARBOR     1000   59        CALM     1010.8R
$$

LMZ867-665-643>646-201200-
LAKE MICHIGAN

STATION/POSITION TIME  TEMP    WIND        PRES    WAVE
                       AIR SEA DIR/SP/G            HT/PER
                 (UTC) (F)     (DEG/KT/KT) (MB)    (FT/S)
N MID LAKE BUOY  1050   61 62  300/ 10/ 12 1007.8R   1/ 3
NORTHPORT PIER   1000   63     320/  9/ 11 1008.5R
SISTER BAY       1011   62     350/ 10/ 10   N/A
KEWAUNEE LAKESHO 1100   62     300/  2/  3 1008.3R
SHEBOYGAN LAKESH 1100   65 66  280/  7/  7 1009.8R
ATWATER BUOY     1100   67     290/  6     1010.8R
MILWAUKEE LAKESH 1100   67     300/  6/  9   N/A
S MID LAKE BUOY  1050   68 66  280/  8/ 10 1009.6R   1
KENOSHA   LAKESH 1100   68     270/  6/  6 1009.8R
$$

TC  - TEMPERATURE IN CELSIUS
VSB - VISIBILITY IN STATUTE MILES
WCI - WIND CHILL INDEX
HX  - HEAT INDEX




USA.gov is the U.S. government's official web portal to all federal, state and local government web resources and services.